Terug naar catalogus

HULIANWANG DIGUI-55

ActiefCommunicatieLEO
NORAD 65112·PAYLOAD·🇨🇳 China

Gelanceerd Aug 4, 2025 vanaf Wenchang Space Launch Site

Loading…

Volgende Passages (komende 24 uur)

TLE

VersSource: Space-Track

Epoch: Sep 14, 2026, 19:24 UTC

1 65112U 25168G   26257.80865802 -.00000091  00000-0  70299-4 0  9998
2 65112  50.0016   4.0426 0011106   0.5150 359.5732 13.29326482 54615

Volg HULIANWANG DIGUI-55 in realtime met AllMySat

Download on the App Store